Jerome, ID

7:59 PM MDT on August 23, 2017 (GMT -0600)
Jerome County

Weather History for KJER - December, 2012

Change the Weather History Date:

Monday, December 10, 2012

  Actual Average Record
Temperature  
Mean Temperature 34 °F 27 °F  
Max Temperature 40 °F 35 °F 54 °F (1950)
Min Temperature 27 °F 20 °F -15 °F (1972)
Degree Days  
Heating Degree Days 31 38  
Month to date heating degree days 274 364  
Since 1 July heating degree days 1478 1915  
Cooling Degree Days 0 0  
Month to date cooling degree days 0 0  
Year to date cooling degree days 750 510  
Moisture  
Dew Point 27 °F    
Average Humidity 82    
Maximum Humidity 100    
Minimum Humidity 63    
Precipitation  
Precipitation T in 0.05 in 0.29 in (1983)
Month to date precipitation 1.14 0.50  
Year to date precipitation 9.95 9.82  
Sea Level Pressure  
Sea Level Pressure 30.21 in    
Wind  
Wind Speed 15 mph (WSW)    
Max Wind Speed 33 mph    
Max Gust Speed 40 mph    
Visibility 9 miles    
Events Snow    
T = Trace of Precipitation, MM = Missing Value Source: NWS Daily Summary

Daily Weather History Graph

Daily Weather History Graph

Search for Another Location

Airport or City:

Trip Planner

Search our weather history database for the weather conditions in past years. The results will help you decide how hot, cold, wet, or windy it might be!

Date:

Astronomy

Dec. 10, 2012 Rise Set
Actual Time 7:57 AM MST 5:04 PM MST
Civil Twilight 7:25 AM MST 5:36 PM MST
Nautical Twilight 6:50 AM MST 6:11 PM MST
Astronomical Twilight 6:15 AM MST 6:45 PM MST
Moon 4:43 AM MST (12/10) 2:58 PM MST (12/10)
Length of Visible Light 10h 10m
Length of Day
9h 06m
Waning Crescent, 10% of the Moon is Illuminated
Dec 10
Waning Crescent
Dec 13
New
Dec 19
First Quarter
Dec 28
Full
Jan 4
Last Quarter

Hourly Weather History & Observations

Time (MST) Temp. Windchill Dew Point Humidity Pressure Visibility Wind Dir Wind Speed Gust Speed Precip Events Conditions
12:25 AM 28.4 °F 21.2 °F 19.4 °F 69% 30.23 in 10.0 mi SSW 6.9 mph - N/A   Overcast
12:53 AM 28.9 °F 21.9 °F 19.9 °F 69% 30.30 in 10.0 mi SW 6.9 mph - N/A   Overcast
1:42 AM 28.4 °F 21.2 °F 17.6 °F 64% 30.19 in 10.0 mi SW 6.9 mph - N/A   Overcast
1:53 AM 28.9 °F 23.9 °F 18.0 °F 64% 30.27 in 10.0 mi WSW 4.6 mph - N/A   Overcast
2:16 AM 28.4 °F 23.3 °F 19.4 °F 69% 30.18 in 10.0 mi SW 4.6 mph - N/A   Overcast
2:53 AM 30.0 °F 23.2 °F 19.9 °F 66% 30.26 in 10.0 mi WSW 6.9 mph - N/A   Overcast
3:53 AM 28.0 °F 18.6 °F 23.0 °F 81% 30.24 in 6.0 mi SW 10.4 mph - 0.00 in Snow Light Snow
4:32 AM 26.6 °F 16.8 °F 24.8 °F 93% 30.15 in 10.0 mi SW 10.4 mph - 0.00 in   Overcast
4:53 AM 28.0 °F 19.3 °F 26.1 °F 92% 30.23 in 10.0 mi WSW 9.2 mph - 0.00 in   Overcast
5:09 AM 28.4 °F 18.0 °F 26.6 °F 93% 30.15 in 10.0 mi WSW 12.7 mph - N/A   Overcast
5:53 AM 28.0 °F 18.1 °F 27.0 °F 96% 30.23 in 10.0 mi WSW 11.5 mph - 0.00 in   Overcast
6:53 AM 28.9 °F 16.9 °F 28.0 °F 96% 30.22 in 4.0 mi SW 17.3 mph 21.9 mph N/A   Overcast
7:53 AM 28.9 °F 19.2 °F 28.9 °F 100% 30.23 in 2.5 mi SW 11.5 mph - N/A   Overcast
8:03 AM 30.2 °F 20.8 °F 28.4 °F 93% 30.15 in 1.5 mi SW 11.5 mph - N/A   Overcast
8:31 AM 30.2 °F 21.3 °F 30.2 °F 100% 30.14 in 3.0 mi WSW 10.4 mph - N/A   Overcast
8:53 AM 30.9 °F 20.7 °F 30.0 °F 96% 30.24 in 10.0 mi WSW 13.8 mph - N/A   Overcast
9:53 AM 30.9 °F 19.8 °F 30.0 °F 96% 30.26 in 10.0 mi WSW 16.1 mph - N/A   Overcast
10:53 AM 32.0 °F 21.6 °F 30.0 °F 92% 30.27 in 10.0 mi WSW 15.0 mph 25.3 mph N/A   Overcast
11:32 AM 35.6 °F 24.8 °F 30.2 °F 81% 30.18 in 10.0 mi WSW 19.6 mph 25.3 mph N/A   Scattered Clouds
11:53 AM 36.0 °F 23.9 °F 30.0 °F 79% 30.23 in 10.0 mi WSW 25.3 mph 34.5 mph N/A   Clear
12:53 PM 39.0 °F 27.4 °F 30.9 °F 73% 30.21 in 10.0 mi WSW 28.8 mph 36.8 mph N/A   Clear
1:53 PM 39.0 °F 27.2 °F 30.0 °F 70% 30.17 in 10.0 mi WSW 29.9 mph 38.0 mph N/A   Clear
2:53 PM 39.9 °F 29.2 °F 30.0 °F 68% 30.16 in 10.0 mi WSW 25.3 mph 35.7 mph N/A   Clear
3:53 PM 37.9 °F 28.2 °F 30.0 °F 73% 30.18 in 10.0 mi WSW 18.4 mph 27.6 mph N/A   Clear
4:53 PM 36.0 °F 26.3 °F 28.9 °F 76% 30.18 in 10.0 mi West 16.1 mph 26.5 mph N/A   Clear
5:53 PM 34.0 °F 25.0 °F 28.9 °F 82% 30.20 in 10.0 mi SW 12.7 mph - N/A   Clear
6:53 PM 33.1 °F 26.9 °F 28.9 °F 85% 30.21 in 10.0 mi SW 6.9 mph - N/A   Clear
7:53 PM 32.0 °F 25.6 °F 28.9 °F 88% 30.20 in 10.0 mi SSW 6.9 mph - N/A   Partly Cloudy
8:53 PM 30.9 °F 22.8 °F 28.0 °F 89% 30.19 in 10.0 mi SW 9.2 mph - N/A   Partly Cloudy
10:53 PM 33.1 °F 25.5 °F 28.0 °F 82% 30.17 in 10.0 mi SW 9.2 mph - N/A   Clear
11:53 PM 32.0 °F 22.5 °F 28.0 °F 85% 30.15 in 10.0 mi WSW 12.7 mph - N/A   Clear